Time,TemperatureF,DewpointF,PressureIn,WindDirection,WindDirectionDegrees,WindSpeedMPH,WindSpeedGustMPH,Humidity,HourlyPrecipIn,Conditions,Clouds,dailyrainin,SoftwareType,DateUTC
2013-07-22 00:00:00,72.0,-99.9,-100.00,North,-999,-999.0,-999.0,-999,0.00,,,0.01,,2013-07-22 04:00:00,
2013-07-22 01:00:00,72.0,-99.9,-100.00,North,-999,-999.0,-999.0,-999,0.00,,,0.01,,2013-07-22 05:00:00,
2013-07-22 01:52:00,72.0,-99.9,-100.00,North,-999,-999.0,-999.0,-999,0.00,,,0.01,,2013-07-22 05:52:00,
2013-07-22 02:00:00,71.0,-99.9,-100.00,North,-999,-999.0,-999.0,-999,0.00,,,0.01,,2013-07-22 06:00:00,
2013-07-22 02:52:00,71.0,-99.9,-100.00,North,-999,-999.0,-999.0,-999,0.00,,,0.01,,2013-07-22 06:52:00,
2013-07-22 03:00:00,71.0,-99.9,-100.00,North,-999,-999.0,-999.0,-999,0.00,,,0.01,,2013-07-22 07:00:00,
2013-07-22 03:53:00,71.0,-99.9,-100.00,North,-999,-999.0,-999.0,-999,0.00,,,0.01,,2013-07-22 07:53:00,
2013-07-22 04:00:00,70.0,-99.9,-100.00,North,-999,-999.0,-999.0,-999,0.00,,,0.01,,2013-07-22 08:00:00,
2013-07-22 04:52:00,70.0,-99.9,-100.00,North,-999,-999.0,-999.0,-999,0.00,,,0.01,,2013-07-22 08:52:00,
2013-07-22 05:00:00,70.0,-99.9,-100.00,North,-999,-999.0,-999.0,-999,0.00,,,0.01,,2013-07-22 09:00:00,
2013-07-22 05:52:00,70.0,-99.9,-100.00,North,-999,-999.0,-999.0,-999,0.00,,,0.01,,2013-07-22 09:52:00,
2013-07-22 06:00:00,70.0,-99.9,-100.00,North,-999,-999.0,-999.0,-999,0.00,,,0.01,,2013-07-22 10:00:00,
2013-07-22 06:53:00,70.0,-99.9,-100.00,North,-999,-999.0,-999.0,-999,0.00,,,0.01,,2013-07-22 10:53:00,
2013-07-22 07:00:00,71.0,-99.9,-100.00,North,-999,-999.0,-999.0,-999,0.00,,,0.01,,2013-07-22 11:00:00,
2013-07-22 07:52:00,71.0,-99.9,-100.00,North,-999,-999.0,-999.0,-999,0.00,,,0.01,,2013-07-22 11:52:00,
2013-07-22 08:00:00,73.0,-99.9,-100.00,North,-999,-999.0,-999.0,-999,0.00,,,0.01,,2013-07-22 12:00:00,
2013-07-22 08:53:00,73.0,-99.9,-100.00,North,-999,-999.0,-999.0,-999,0.00,,,0.01,,2013-07-22 12:53:00,
2013-07-22 09:00:00,78.0,-99.9,-100.00,North,-999,-999.0,-999.0,-999,0.00,,,0.00,,2013-07-22 13:00:00,
2013-07-22 10:00:00,78.0,-99.9,-100.00,North,-999,-999.0,-999.0,-999,0.00,,,0.00,,2013-07-22 14:00:00,
2013-07-22 10:53:00,78.0,-99.9,-100.00,North,-999,-999.0,-999.0,-999,0.00,,,0.00,,2013-07-22 14:53:00,
2013-07-22 11:00:00,82.0,-99.9,-100.00,North,-999,-999.0,-999.0,-999,0.00,,,0.00,,2013-07-22 15:00:00,
2013-07-22 15:00:00,85.0,-99.9,-100.00,North,-999,-999.0,-999.0,-999,0.01,,,0.52,,2013-07-22 19:00:00,
2013-07-22 15:58:00,85.0,-99.9,-100.00,North,-999,-999.0,-999.0,-999,0.01,,,0.52,,2013-07-22 19:58:00,
2013-07-22 16:00:00,80.0,-99.9,-100.00,North,-999,-999.0,-999.0,-999,0.00,,,0.52,,2013-07-22 20:00:00,
2013-07-22 16:53:00,80.0,-99.9,-100.00,North,-999,-999.0,-999.0,-999,0.00,,,0.52,,2013-07-22 20:53:00,
2013-07-22 17:00:00,76.0,-99.9,-100.00,North,-999,-999.0,-999.0,-999,0.22,,,0.74,,2013-07-22 21:00:00,
2013-07-22 17:53:00,76.0,-99.9,-100.00,North,-999,-999.0,-999.0,-999,0.22,,,0.74,,2013-07-22 21:53:00,
2013-07-22 18:00:00,74.0,-99.9,-100.00,North,-999,-999.0,-999.0,-999,0.00,,,0.74,,2013-07-22 22:00:00,
2013-07-22 18:53:00,74.0,-99.9,-100.00,North,-999,-999.0,-999.0,-999,0.00,,,0.74,,2013-07-22 22:53:00,
2013-07-22 19:00:00,74.0,-99.9,-100.00,North,-999,-999.0,-999.0,-999,0.00,,,0.74,,2013-07-22 23:00:00,
2013-07-22 19:52:00,74.0,-99.9,-100.00,North,-999,-999.0,-999.0,-999,0.00,,,0.74,,2013-07-22 23:52:00,
2013-07-22 20:00:00,73.0,-99.9,-100.00,North,-999,-999.0,-999.0,-999,0.04,,,0.78,,2013-07-23 00:00:00,
2013-07-22 20:52:00,73.0,-99.9,-100.00,North,-999,-999.0,-999.0,-999,0.04,,,0.78,,2013-07-23 00:52:00,
2013-07-22 21:00:00,70.0,-99.9,-100.00,North,-999,-999.0,-999.0,-999,0.00,,,0.78,,2013-07-23 01:00:00,
2013-07-22 21:53:00,70.0,-99.9,-100.00,North,-999,-999.0,-999.0,-999,0.00,,,0.78,,2013-07-23 01:53:00,
2013-07-22 22:00:00,70.0,-99.9,-100.00,North,-999,-999.0,-999.0,-999,0.00,,,0.78,,2013-07-23 02:00:00,
2013-07-22 23:00:00,70.0,-99.9,-100.00,North,-999,-999.0,-999.0,-999,0.00,,,0.78,,2013-07-23 03:00:00,
2013-07-22 23:52:00,70.0,-99.9,-100.00,North,-999,-999.0,-999.0,-999,0.00,,,0.78,,2013-07-23 03:52:00,